sat.trackr.live / text

‹ back to catalog

2023-189B

NORAD 58503 · 2023-189B

PAYLOAD ACTIVE UNKNOWN

§ Identity

Operator
Country
PRC
Launch date
2023-12-04
Launch site
JSC
Launch vehicle
Mass (kg)
RCS (m²)

External: N2YO · Heavens-Above · Gunter

§ Orbital elements

Epoch: 2026-05-25T02:46:13.393056Z

Period
90.01 min
Inclination
97.3850°
Eccentricity
0.0006998
Mean motion
15.99755667 rev/d
Perigee alt
270.4 km
Apogee alt
279.8 km
Semi-major
6,653.2 km
B*
8.4723e-4
RAAN
183.8764°
Arg perigee
220.3247°
Mean anomaly
139.7513°
Rev number
13,911

§ Raw data

2023-189B1 58503U 23189B   26145.11543279  .00423620  78570-4  84723-3 0  99992 58503  97.3850 183.8764 0006998 220.3247 139.7513 15.99755667139118

JSON: /api/v1/satellites/58503 · /tle

For live sub-satellite position, see the globe view (requires WebGL).

§ Visibility from observer

Set your observer location to see the next 7 days of passes ≥ 10°. The values pass through the URL so the page stays shareable.

No JS? Fill the form by hand. The geolocation button needs JavaScript.